East Milton, MA

11:29 PM EDT on May 22, 2017 (GMT -0400)
East Milton

Weather History for KMQE - April, 2014

Change the Weather History Date:

Sunday, April 6, 2014

  Actual Average (KOWD) Record (KOWD)
Temperature  
Mean Temperature 42 °F -  
Max Temperature 57 °F 51 °F 66 °F (2005)
Min Temperature 28 °F 32 °F 15 °F (2016)
Degree Days  
Heating Degree Days 24    
Moisture  
Dew Point 19 °F    
Average Humidity 44    
Maximum Humidity 75    
Minimum Humidity 20    
Precipitation  
Precipitation 0.00 in - - ()
Sea Level Pressure  
Sea Level Pressure 30.10 in    
Wind  
Wind Speed 13 mph (West)    
Max Wind Speed 15 mph    
Max Gust Speed 25 mph    
Averages and records for this station are not official NWS values.
T = Trace of Precipitation, MM = Missing Value Source: NWS Daily Summary

Daily Weather History Graph

Daily Weather History Graph

Search for Another Location

Airport or City:

Trip Planner

Search our weather history database for the weather conditions in past years. The results will help you decide how hot, cold, wet, or windy it might be!

Date:

Astronomy

Apr. 06, 2014 Rise Set
Actual Time 6:18 AM EDT 7:15 PM EDT
Civil Twilight 5:50 AM EDT 7:44 PM EDT
Nautical Twilight 5:16 AM EDT 8:18 PM EDT
Astronomical Twilight 4:40 AM EDT 8:53 PM EDT
Moon 11:13 AM EDT (4/6) 1:13 AM EDT (4/6)
Length of Visible Light 13h 54m
Length of Day
12h 57m
Waxing Crescent, 43% of the Moon is Illuminated
Apr 6
Waxing Crescent
Apr 7
First Quarter
Apr 15
Full
Apr 22
Last Quarter
Apr 29
New

Hourly Weather History & Observations

Time (EDT) Temp. Windchill Dew Point Humidity Pressure Visibility Wind Dir Wind Speed Gust Speed Precip Events Conditions
12:54 AM 33.1 °F 23.0 °F 21.9 °F 64% 29.97 in - West 15.0 mph - N/A   Unknown
1:54 AM 32.0 °F 21.6 °F 21.0 °F 64% 29.97 in - West 15.0 mph - N/A   Unknown
2:54 AM 32.0 °F 21.6 °F 21.0 °F 64% 29.98 in - West 15.0 mph 25.3 mph N/A   Unknown
3:54 AM 30.9 °F 20.2 °F 21.0 °F 67% 30.00 in - West 15.0 mph - N/A   Unknown
4:54 AM 30.0 °F 20.0 °F 21.0 °F 69% 30.02 in - West 12.7 mph - N/A   Unknown
5:54 AM 28.9 °F 19.2 °F 21.0 °F 72% 30.05 in - West 11.5 mph - N/A   Unknown
6:54 AM 28.9 °F 18.6 °F 21.9 °F 75% 30.09 in - West 12.7 mph - N/A   Unknown
7:54 AM 32.0 °F 23.6 °F 23.0 °F 69% 30.12 in - West 10.4 mph - N/A   Unknown
8:54 AM 37.0 °F 29.3 °F 21.9 °F 54% 30.12 in - West 11.5 mph - N/A   Unknown
9:54 AM 39.0 °F 31.0 °F 21.0 °F 49% 30.13 in - WNW 13.8 mph 20.7 mph N/A   Unknown
10:54 AM 43.0 °F 36.8 °F 21.0 °F 42% 30.13 in - WNW 11.5 mph 18.4 mph N/A   Unknown
11:54 AM 45.0 °F 39.3 °F 19.9 °F 37% 30.12 in - West 11.5 mph - N/A   Unknown
12:54 PM 48.9 °F - 19.9 °F 32% 30.11 in - WNW 12.7 mph 20.7 mph N/A   Unknown
1:54 PM 52.0 °F - 18.0 °F 26% 30.11 in - West 12.7 mph 17.3 mph N/A   Unknown
2:54 PM 55.0 °F - 16.0 °F 22% 30.10 in - West 12.7 mph 21.9 mph N/A   Unknown
3:54 PM 55.9 °F - 16.0 °F 21% 30.10 in - WNW 10.4 mph 18.4 mph N/A   Unknown
4:54 PM 55.9 °F - 15.1 °F 20% 30.11 in - WNW 11.5 mph - N/A   Unknown
5:54 PM 55.9 °F - 16.0 °F 21% 30.12 in - West 11.5 mph 18.4 mph N/A   Unknown
6:54 PM 52.0 °F - 17.1 °F 25% 30.12 in - WNW 9.2 mph - N/A   Unknown
7:54 PM 48.9 °F - 18.0 °F 29% 30.14 in - West 10.4 mph - N/A   Unknown
8:54 PM 46.9 °F - 18.0 °F 32% 30.17 in - West 11.5 mph - N/A   Unknown
9:54 PM 46.0 °F 41.0 °F 18.0 °F 33% 30.18 in - West 10.4 mph - N/A   Unknown
10:54 PM 45.0 °F 39.7 °F 19.0 °F 36% 30.19 in - WNW 10.4 mph - N/A   Unknown
11:54 PM 44.1 °F 39.0 °F 18.0 °F 35% 30.22 in - WSW 9.2 mph - N/A   Unknown